Change the Weather History Date:

Thursday, January 9, 2014

  Actual Average Record
Temperature  
Mean Temperature 77 °F -  
Max Temperature 80 °F 81 °F 84 °F (2001)
Min Temperature 74 °F 72 °F 69 °F (2008)
Cooling Degree Days 12    
Growing Degree Days 27 (Base 50)    
Moisture  
Dew Point 68 °F    
Average Humidity 69    
Maximum Humidity 89    
Minimum Humidity 57    
Precipitation  
Precipitation 0.08 in 0.07 in - ()
Sea Level Pressure  
Sea Level Pressure 30.08 in    
Wind  
Wind Speed 13 mph ()    
Max Wind Speed 20 mph    
Max Gust Speed 30 mph    
Visibility 8.2 miles    
Events Rain    
Averages and records for this station are not official NWS values.
T = Trace of Precipitation, MM = Missing Value Source: Averaged Metar Reports

Daily Weather History Graph

Daily Weather History Graph

Search for Another Location

Airport or City:

Trip Planner

Search our weather history database for the weather conditions in past years. The results will help you decide how hot, cold, wet, or windy it might be!

Date:

Astronomy

Jan. 09, 2014 Rise Set
Actual Time 6:46 AM AST 5:53 PM AST
Civil Twilight 6:22 AM AST 6:16 PM AST
Nautical Twilight 5:55 AM AST 6:43 PM AST
Astronomical Twilight 5:28 AM AST 7:10 PM AST
Moon 12:59 PM AST (1/9) 1:10 AM AST (1/9)
Length of Visible Light 11h 54m
Length of Day
11h 07m
Waxing Gibbous, 65% of the Moon is Illuminated
Jan 9
Waxing Gibbous
Jan 16
Full
Jan 24
Last Quarter
Jan 30
New
Feb 6
First Quarter

Hourly Weather History & Observations

Time (AST) Temp. Heat Index Dew Point Humidity Pressure Visibility Wind Dir Wind Speed Gust Speed Precip Events Conditions
12:00 AM 78.8 °F - 68.0 °F 69% 30.09 in 6.2 mi ENE 15.0 mph - N/A   Partly Cloudy
1:00 AM 78.8 °F - 68.0 °F 69% 30.06 in 6.2 mi ENE 13.8 mph - N/A   Partly Cloudy
2:00 AM 78 °F - 68 °F 65% 30.07 in 19 mi ENE 15.0 mph - -   Partly Cloudy
2:00 AM 78.8 °F - 68.0 °F 69% 30.06 in 6.2 mi ENE 15.0 mph - N/A   Scattered Clouds
3:00 AM 78.8 °F - 68.0 °F 69% 30.04 in 6.2 mi ENE 15.0 mph - N/A   Scattered Clouds
4:00 AM 75.2 °F - 69.8 °F 83% 30.04 in 6.2 mi ENE 9.2 mph - N/A   Mostly Cloudy
5:00 AM 76 °F - 68 °F 69% 30.05 in 19 mi East 18.4 mph - - Rain Light Rain Showers
5:00 AM 77.0 °F - 68.0 °F 74% 30.04 in 6.2 mi ENE 16.1 mph - N/A   Mostly Cloudy
5:59 AM 77.0 °F - 66.2 °F 69% 30.04 in 6.2 mi ENE 17.3 mph - N/A   Scattered Clouds
6:59 AM 77.0 °F - 66.2 °F 69% 30.06 in 6.2 mi ENE 17.3 mph - N/A   Partly Cloudy
8:00 AM 79 °F - 67 °F 57% 30.12 in 19 mi East 17.3 mph - -   Partly Cloudy
8:00 AM 78.8 °F - 66.2 °F 65% 30.09 in 6.2 mi ENE 17.3 mph - N/A   Partly Cloudy
9:00 AM 80.6 °F 82.7 °F 66.2 °F 61% 30.12 in 6.2 mi East 15.0 mph - N/A   Partly Cloudy
10:00 AM 80.6 °F 82.7 °F 66.2 °F 61% 30.15 in 6.2 mi East 13.8 mph - N/A   Partly Cloudy
11:00 AM 80 °F - 70 °F 63% 30.15 in 9 mi East 12.7 mph - - Rain Light Rain Showers
11:00 AM 80.6 °F 83.9 °F 69.8 °F 70% 30.15 in 6.2 mi East 12.7 mph - N/A Rain Light Rain Showers
11:23 AM 78.8 °F - 69.8 °F 74% 30.12 in 6.2 mi ENE 16.1 mph - N/A Rain Light Rain Showers
11:42 AM 78.8 °F - 71.6 °F 78% 30.12 in 6.2 mi East 13.8 mph - N/A   Mostly Cloudy
12:00 PM 78.8 °F - 69.8 °F 74% 30.12 in 6.2 mi East 15.0 mph - N/A   Scattered Clouds
12:29 PM 80.6 °F 83.9 °F 69.8 °F 70% 30.09 in 6.2 mi East 15.0 mph - N/A Rain Light Rain Showers
12:35 PM 80.6 °F 83.9 °F 69.8 °F 70% 30.09 in 5.0 mi East 15.0 mph - N/A Rain Rain Showers
1:00 PM 75.2 °F - 71.6 °F 89% 30.09 in 6.2 mi East 12.7 mph - N/A   Mostly Cloudy
2:00 PM 79 °F - 70 °F 68% 30.06 in 19 mi East 15.0 mph - - Rain Light Rain Showers
2:00 PM 78.8 °F - 69.8 °F 74% 30.04 in 6.2 mi East 15.0 mph 27.6 mph N/A   Partly Cloudy
3:00 PM 80.6 °F 83.9 °F 69.8 °F 70% 30.04 in 6.2 mi East 19.6 mph - N/A   Scattered Clouds
4:00 PM 80.6 °F 83.2 °F 68.0 °F 65% 30.04 in 6.2 mi East 15.0 mph - N/A   Partly Cloudy
5:00 PM 78.8 °F - 68.0 °F 69% 30.04 in 6.2 mi East 12.7 mph - N/A   Scattered Clouds
6:00 PM 78.8 °F - 68.0 °F 69% 30.04 in 6.2 mi ENE 15.0 mph - N/A   Scattered Clouds
8:00 PM 78.8 °F - 68.0 °F 69% 30.09 in 6.2 mi East 16.1 mph 29.9 mph N/A   Scattered Clouds
9:00 PM 78.8 °F - 66.2 °F 65% 30.12 in 6.2 mi East 12.7 mph - N/A   Partly Cloudy
10:00 PM 78.8 °F - 66.2 °F 65% 30.12 in 6.2 mi East 11.5 mph - N/A   Partly Cloudy
11:00 PM 78 °F - 65 °F 57% 30.12 in 19 mi East 8.1 mph - -   Scattered Clouds
11:00 PM 78.8 °F - 66.2 °F 65% 30.09 in 6.2 mi ENE 9.2 mph - N/A   Partly Cloudy